CDT,Max TemperatureF,Mean TemperatureF,Min TemperatureF,Max Dew PointF,MeanDew PointF,Min DewpointF,Max Humidity, Mean Humidity, Min Humidity, Max Sea Level PressureIn, Mean Sea Level PressureIn, Min Sea Level PressureIn, Max VisibilityMiles, Mean VisibilityMiles, Min VisibilityMiles, Max Wind SpeedMPH, Mean Wind SpeedMPH, Max Gust SpeedMPH,PrecipitationIn, CloudCover, Events, WindDirDegrees
2012-10-1,73,66,59,58,56,49,93,77,44,29.78,29.72,29.68,10,10,9,9,2,,0.00,1,,309
2012-10-2,75,63,53,59,54,50,100,80,44,29.91,29.86,29.78,10,8,1,6,0,,0.00,0,Rain,330
2012-10-3,78,67,57,61,56,53,100,74,45,30.07,29.99,29.91,10,9,4,7,1,,0.00,1,Rain,154
2012-10-4,82,66,51,61,57,51,100,77,43,30.18,30.12,30.08,10,6,2,6,1,,0.00,1,,130
2012-10-5,81,66,52,72,60,47,100,89,66,30.13,30.06,29.96,10,6,1,9,2,17,0.06,5,Rain,334
2012-10-6,50,47,44,46,40,36,93,79,66,30.26,30.20,30.13,10,9,2,6,3,,0.07,8,Rain,70
2012-10-7,57,47,39,47,40,34,97,76,45,30.29,30.23,30.18,10,10,10,6,0,,0.00,4,,90
2012-10-8,62,52,42,45,42,39,97,77,44,30.25,30.19,30.11,10,9,1,6,1,,0.00,4,Rain,235
2012-10-9,64,50,37,58,49,37,100,86,62,30.10,30.04,29.92,10,8,2,8,1,,0.02,5,Rain,147
2012-10-10,70,62,55,56,51,40,100,81,39,30.24,30.14,30.04,10,5,0,7,1,,0.00,7,Fog,128
2012-10-11,81,66,53,65,56,41,96,72,51,30.20,30.14,30.09,10,10,6,7,2,,0.02,5,,170
2012-10-12,78,68,60,70,64,61,100,92,66,30.22,30.16,30.11,10,5,0,8,2,18,0.37,6,Fog-Rain,143
2012-10-13,77,68,60,67,64,60,100,91,69,30.15,30.06,29.82,10,4,0,12,1,25,0.06,6,Fog,147
2012-10-14,79,66,53,63,58,52,96,79,43,30.03,29.91,29.76,10,8,0,10,5,37,1.32,2,Fog-Rain,289
2012-10-15,81,64,46,56,49,43,97,71,27,30.07,30.01,29.94,10,9,6,0,0,,0.00,0,,-1
2012-10-16,73,60,48,59,51,48,97,75,44,29.94,29.84,29.72,10,10,10,9,2,,0.00,0,,230
2012-10-17,72,66,55,66,60,52,97,85,68,29.71,29.61,29.52,10,9,4,9,2,24,0.03,5,Rain,190
2012-10-18,71,58,46,51,36,24,97,52,17,29.90,29.83,29.74,10,10,10,13,3,29,0.00,2,,301
2012-10-19,70,57,43,40,33,26,89,42,28,29.89,29.83,29.79,10,10,9,13,4,22,0.00,2,,307
2012-10-20,80,58,37,51,43,36,100,62,26,29.93,29.86,29.80,10,10,10,7,1,,0.00,1,,140
2012-10-21,80,72,66,67,62,46,84,70,42,29.95,29.90,29.83,10,10,10,10,3,20,0.00,5,,210
2012-10-22,78,73,69,66,64,55,87,76,53,30.04,29.98,29.92,10,10,10,8,5,,0.00,5,,162
2012-10-23,80,74,68,63,61,55,78,66,50,29.99,29.94,29.89,10,10,10,7,4,16,0.00,2,,200
2012-10-24,80,71,63,65,63,61,93,75,56,30.02,29.94,29.88,10,10,7,7,2,,0.00,1,,157
2012-10-25,78,62,48,69,59,46,100,83,69,30.07,29.93,29.83,10,8,0,13,5,21,0.98,7,Fog-Rain,313
2012-10-26,53,46,37,48,42,36,100,83,58,30.27,30.16,30.06,10,9,2,6,2,,0.21,6,Rain,315
2012-10-27,57,44,30,35,32,26,100,73,30,30.30,30.22,30.14,10,9,7,6,1,,0.00,0,,-1
2012-10-28,59,44,28,35,30,23,100,72,26,30.27,30.23,30.19,10,10,10,6,1,,0.00,0,,180
2012-10-29,62,44,28,37,32,28,97,72,30,30.34,30.24,30.14,10,10,10,5,0,,0.00,0,,180
2012-10-30,71,50,30,44,36,30,100,69,25,30.12,30.02,29.94,10,10,8,5,0,,0.00,1,,325
2012-10-31,73,56,39,48,42,38,100,75,33,30.01,29.97,29.92,10,9,5,5,0,,0.00,0,,160